Regional Weather Roundup
Issued by NWS

Home | Current Version | Previous Version | Graphics & Text | Print | Product List | Glossary On
Versions: 1 2 3 4 5 6 7 8 9 10 11 12 13 14 15 16 17 18 19 20 21 22 23 24 25 26 27 28 29 30 31 32 33 34 35 36 37 38 39 40 41 42 43 44 45 46 47 48 49 50
749
ASUS44 KJAN 212303
RWRMS

MISSISSIPPI HOURLY WEATHER ROUNDUP
NATIONAL WEATHER SERVICE JACKSON MS
600 PM CDT MON JUL 21 2014

NOTE: "FAIR: INDICATES FEW OR NO CLOUDS BELOW 12,000 FEET WITH NO
SIGNIFICANT WEATHER AND/OR OBSTRUCTIONS TO VISIBILITY.

MSZ001>002-007>008-010>013-018>021-025>028-034>036-220000-
NORTHWEST MISSISSIPPI

CITY           SKY/WX    TMP DP  RH WIND       PRES   REMARKS
CLARKSDALE     FAIR      84  70  61 N3        30.04S
CLEVELAND      MOCLDY    83  74  73 N5        30.02S
GREENWOOD      SUNNY     86  69  56 N3        30.01S HX  90
GREENVILLE     MOSUNNY   86  72  62 NE5       30.01S HX  92
GRENADA        FAIR      84  68  58 NE5       30.03S
OLIVE BRANCH   MOSUNNY   82  66  57 NE7       30.05R
OXFORD         FAIR      82  66  57 N3        30.06S
TUNICA         PTCLDY    81  66  61 N3        30.05R
$$

MSZ003>006-009-014>017-022>024-029>033-037>039-220000-
NORTHEAST MISSISSIPPI

CITY           SKY/WX    TMP DP  RH WIND       PRES   REMARKS
BELMONT        FAIR      84  69  58 N3        30.03F
COLUMBUS AFB   SUNNY     86  69  56 N7        30.01S HX  90
CORINTH        FAIR      84  66  54 N5        30.04S
GOLDN TRIANGLE MOSUNNY   88  68  51 N7        30.01F HX  91
STARKVILLE     FAIR      84  66  54 N5        30.01S
TUPELO         SUNNY     85  66  53 N5        30.02F
$$

MSZ040-058-220000-
CENTRAL MISSISSIPPI

CITY           SKY/WX    TMP DP  RH WIND       PRES   REMARKS
JACKSON INTL   MOSUNNY   88  68  51 N5        30.00S HX  91
JACKSON HAWKNS MOSUNNY   88  66  48 N5        30.01S HX  90
MERIDIAN KEY   PTSUNNY   88  66  48 N9        29.99R HX  90
MERIDIAN NAS   MOSUNNY   88  67  49 N8        30.00R HX  91
RAYMOND        FAIR      86  81  84 NW3       30.00S HX 102
VICKSBURG      MOSUNNY   87  70  56 N5        30.00F HX  92
$$

MSZ059>079-220000-
SOUTH MISSISSIPPI

CITY           SKY/WX    TMP DP  RH WIND       PRES   REMARKS
BROOKHAVEN     FAIR      84  70  61 N6        30.02S
COLUMBIA       FAIR      88  70  55 N5        29.98S HX  92
HATTIESBURG    SUNNY     89  65  44 W6        29.99S HX  91
MCCOMB         MOSUNNY   87  68  52 NW7       30.00S HX  90
NATCHEZ        SUNNY     84  70  61 N7        30.01F
PINE BELT      MOSUNNY   88  66  48 CALM      30.01S HX  90
$$

MSZ080>082-220000-
COASTAL MISSISSIPPI

CITY           SKY/WX    TMP DP  RH WIND       PRES   REMARKS
BAY ST LOUIS   MOSUNNY  N/A N/A N/A VRB3      29.98S
BILOXI         SUNNY     89  69  52 VRB2      29.97F HX  93
PASCAGOULA     MOSUNNY   87  72  60 SW8       29.97S HX  93
GULFPORT       SUNNY     91  68  46 NW5       29.97S HX  95
$$



USA.gov is the U.S. government's official web portal to all federal, state and local government web resources and services.